Starlink 36215

operational
NORAD ID: 67100 Int'l Des: 2025-298 Owner: SPXS Country: US Constellation: starlink
LEOCIRCULAR

About Starlink 36215

Description loading...

Live Position

Loading 3D Globe...

Upcoming Passes

Altitude History

Altitude vs Time

uPlot chart will show altitude changes over time

Two-Line Element Set

1 67100C 25298AB 25349.42895833 -.00240180 00000+0 -34747-3 0 3498
2 67100 70.0016 242.9930 0007094 270.4381 226.6982 16.05261599 14
Epoch: Dec 15, 2025 • Age: 46 hours

Current Status

Altitude 277.9 km
Velocity 7.74 km/s
Sub-Earth Point 69.64°N, 99.79°W
Launch Date Dec 14, 2025
Age 2 days
Type internet

Technical Details

Classification Payload
Mass 575.00 kg
Dry Mass 530.00 kg
Total Mass 575.00 kg
Length 0.30 m
Diameter 4.10 m
Span 29.00 m
Shape Box + pan
Manufacturer SPXS
Bus Type Starlink V2MO
Phase Status In Orbit
Owner/State SPXS/US

Large Constellations

Loading constellations...